Date,TemperatureHighF,TemperatureAvgF,TemperatureLowF,DewpointHighF,DewpointAvgF,DewpointLowF,HumidityHigh,HumidityAvg,HumidityLow,PressureMaxIn,PressureMinIn,WindSpeedMaxMPH,WindSpeedAvgMPH,GustSpeedMaxMPH,PrecipitationSumIn
2013-4-1,83,68,53,-100,-100,-100,0,0,100,0.00,40.00,13,4,19,0.00
2013-4-2,76,61,51,-100,-100,-100,0,0,100,0.00,40.00,10,5,19,0.00
2013-4-3,70,54,43,-100,-100,-100,0,0,100,0.00,40.00,13,8,18,0.00
2013-4-4,74,60,41,-100,-100,-100,0,0,100,0.00,40.00,13,5,17,0.00
2013-4-5,83,64,47,-100,-100,-100,0,0,100,0.00,40.00,19,8,28,0.00
2013-4-6,86,67,53,-100,-100,-100,0,0,100,0.00,40.00,16,8,29,0.00
2013-4-7,85,67,51,-100,-100,-100,0,0,100,0.00,40.00,19,8,24,0.00
2013-4-8,85,70,54,-100,-100,-100,0,0,100,0.00,40.00,14,7,21,0.00
2013-4-9,80,66,57,-100,-100,-100,0,0,100,0.00,40.00,24,12,24,0.00
2013-4-10,66,56,46,-100,-100,-100,0,0,100,0.00,40.00,13,6,20,0.00
2013-4-11,69,51,36,-100,-100,-100,0,0,100,0.00,40.00,20,6,26,0.00
2013-4-12,80,57,42,-100,-100,-100,0,0,100,0.00,40.00,12,4,16,0.00
2013-4-13,69,57,51,-100,-100,-100,0,0,100,0.00,40.00,11,5,18,0.00
2013-4-14,82,62,47,-100,-100,-100,0,0,100,0.00,40.00,20,8,27,0.00
2013-4-15,83,70,54,-100,-100,-100,0,0,100,0.00,40.00,13,8,19,0.00
2013-4-16,89,70,52,-100,-100,-100,0,0,100,0.00,40.00,16,5,23,0.00
2013-4-17,87,68,55,-100,-100,-100,0,0,100,0.00,40.00,16,6,27,0.00
2013-4-18,67,55,46,-100,-100,-100,0,0,100,0.00,40.00,17,7,30,0.00
2013-4-19,67,51,38,-100,-100,-100,0,0,100,0.00,40.00,8,4,12,0.00
2013-4-20,78,58,41,-100,-100,-100,0,0,100,0.00,40.00,14,7,20,0.00
2013-4-21,84,68,51,-100,-100,-100,0,0,100,0.00,40.00,10,4,16,0.00
2013-4-22,88,70,49,-100,-100,-100,0,0,100,0.00,40.00,13,5,27,0.00
2013-4-23,74,63,50,-100,-100,-100,0,0,100,0.00,40.00,18,7,23,0.00
2013-4-24,72,50,34,-100,-100,-100,0,0,100,0.00,40.00,24,11,25,0.00
2013-4-25,79,58,42,-100,-100,-100,0,0,100,0.00,40.00,18,8,25,0.00
2013-4-26,83,64,45,-100,-100,-100,0,0,100,0.00,40.00,16,6,21,0.00
2013-4-27,80,66,49,-100,-100,-100,0,0,100,0.00,40.00,13,8,20,0.00
2013-4-28,76,63,54,-100,-100,-100,0,0,100,0.00,40.00,12,5,12,0.00
2013-4-29,86,62,47,-100,-100,-100,0,0,100,0.00,40.00,9,4,17,0.00
2013-4-30,91,77,55,-100,-100,-100,0,0,100,0.00,40.00,14,8,23,0.00